Location: Newark
(46.3150°N, 5.9081°E)
Time: 17:40:25
(UTC+00:00)

OTV 5 (USA 277) - Pass Details

Date: 28 October 2019
Orbit: 310 x 324 km, 54.5° (Epoch: 17 October)

Event Time Altitude Azimuth Distance (km) Brightness Sun altitude
Rises 18:36:13 0° 227° (SW) 2,053 ? -22.6°
Reaches altitude 10° 18:38:11 10° 224° (SW) 1,228 ? -22.9°
Enters shadow 18:38:40 14° 222° (SW) 1,027 ? -23.0°
